This is the latest recevied weather packets stored in our database for station/object W3TMB. If no packets are shown the sender has not sent any weather packets the latest 10 day(s).
| Time | Temp. | Humidity | Pressure | Rain* | Wind** | Luminosity | Snow |
|---|---|---|---|---|---|---|---|
| 1777483717 | 14.44° C | 85% | 1008.5 hPa | 0 mm | - | 61 W/m² | - |
| 1777483413 | 14.44° C | 86% | 1008.7 hPa | 0 mm | - | 49 W/m² | - |
| 1777483108 | 13.89° C | 85% | 1009 hPa | 0 mm | - | 101 W/m² | - |
| 1777482806 | 13.89° C | 85% | 1009 hPa | 0 mm | - | 67 W/m² | - |
| 1777482501 | 13.89° C | 85% | 1009 hPa | 0 mm | - | 51 W/m² | - |
| 1777482199 | 13.89° C | 85% | 1009.1 hPa | 0 mm | - | 69 W/m² | - |
| 1777481896 | 13.89° C | 85% | 1009.1 hPa | 0 mm | - | 51 W/m² | - |
| 1777481594 | 13.89° C | 85% | 1009.1 hPa | 0 mm | - | 67 W/m² | - |
| 1777481291 | 13.89° C | 85% | 1009 hPa | 0 mm | - | 102 W/m² | - |
| 1777480987 | 13.89° C | 85% | 1009 hPa | 0 mm | - | 67 W/m² | - |
| 1777480683 | 13.89° C | 85% | 1009.1 hPa | 0 mm | - | 55 W/m² | - |
| 1777480380 | 13.89° C | 85% | 1009.4 hPa | 0 mm | - | 78 W/m² | - |
| 1777480076 | 13.89° C | 84% | 1009.3 hPa | 0 mm | - | 78 W/m² | - |
| 1777479772 | 13.89° C | 84% | 1009.7 hPa | 0 mm | - | 72 W/m² | - |
| 1777479470 | 13.89° C | 83% | 1009.7 hPa | 0 mm | - | 77 W/m² | - |
| 1777479166 | 13.89° C | 83% | 1009.6 hPa | 0 mm | - | 78 W/m² | - |
| 1777478864 | 13.89° C | 83% | 1009.7 hPa | 0 mm | - | 97 W/m² | - |
| 1777478559 | 13.89° C | 83% | 1009.6 hPa | 0 mm | - | 92 W/m² | - |
| 1777478257 | 13.89° C | 84% | 1009.6 hPa | 0 mm | - | 118 W/m² | - |
| 1777477953 | 13.89° C | 83% | 1010 hPa | 0 mm | - | 69 W/m² | - |
| 1777477649 | 13.89° C | 84% | 1010 hPa | 0 mm | - | 73 W/m² | - |
| 1777477346 | 13.33° C | 84% | 1009.9 hPa | 0 mm | - | 92 W/m² | - |
| 1777477042 | 13.33° C | 83% | 1010.1 hPa | 0 mm | - | 85 W/m² | - |
| 1777476740 | 13.33° C | 84% | 1010.1 hPa | 0 mm | - | 68 W/m² | - |
| 1777476436 | 13.89° C | 84% | 1010.1 hPa | 0 mm | - | 80 W/m² | - |
* Rain latest hour (hover to see other rain measurements)
** Current wind speed in m/s (hover to see current wind gust speed)